Location: Unspecified
(0.0000°N, 0.0000°E)
Time: 12:37:00
(UTC+00:00)

Vanguard 1 - Pass Details

Date: 13 December 2017
Orbit: 649 x 3834 km, 34.2° (Epoch: 21 January)

Event Time Altitude Azimuth Distance (km) Brightness Sun altitude
Rises 08:20:33 0° 257° (WSW) 7,720 14.2 33.2°
Reaches altitude 10° 08:26:23 10° 264° (W) 6,867 14.0 34.5°
Maximum altitude 08:47:02 38° 325° (NW) 4,685 13.4 39.0°
Drops below altitude 10° 09:03:29 10° 28° (NNE) 5,473 13.9 42.5°
Sets 09:07:34 0° 37° (NE) 6,079 14.2 43.4°
